Simultaneous Nadir Overpasses (SNOs) Predictions

Prediction of SNOs between AQUA and METOP-B Satellite Orbit:

Table of predicted SNOs for the next 14.0 days since TLE Epoch: 5/30/2020
Index Date (AQUA) Time (AQUA) Lat,Lon (AQUA) SZA (AQUA ) Date (METOP-B) Time (METOP-B) Lat,Lon (METOP-B) SZA (METOP-B ) Distance(km) Time Diff (sec)
1 05/30/2020 20:46:07 -73.78, 42.84 128.17 05/30/2020 20:45:10 -73.76, 42.81 128.18 2.24 57
2 05/30/2020 21:35:35 73.82,-149.61 51.87 05/30/2020 21:35:48 73.84,-149.69 51.89 3.00 13
3 05/30/2020 22:25:11 -74.34, 16.84 127.58 05/30/2020 22:26:19 -74.38, 18.99 127.61 64.70 68
4 06/02/2020 16:20:23 -73.80, 109.23 128.52 06/02/2020 16:19:31 -73.80, 109.29 128.52 1.83 52
5 06/02/2020 17:09:51 73.85, -83.23 51.53 06/02/2020 17:10:09 73.86, -83.21 51.55 2.00 18
6 06/02/2020 17:59:32 -74.62, 82.61 127.65 06/02/2020 18:00:36 -74.61, 86.00 127.76 99.99 64
7 06/05/2020 11:54:37 -73.77, 175.73 128.86 06/05/2020 11:53:52 -73.78, 175.66 128.85 2.22 45
8 06/05/2020 12:44:05 73.83, -16.75 51.19 06/05/2020 12:44:30 73.84, -16.86 51.21 3.46 25
9 06/08/2020 07:28:53 -73.81,-117.91 129.09 06/08/2020 07:28:13 -73.81,-117.86 129.09 1.37 40
10 06/08/2020 08:18:21 73.87, 49.60 50.97 06/08/2020 08:18:51 73.87, 49.62 50.97 0.56 30
11 06/11/2020 03:03:08 -73.79, -51.44 129.32 06/11/2020 03:02:35 -73.79, -51.51 129.32 2.13 33
12 06/11/2020 03:52:36 73.86, 116.05 50.75 06/11/2020 03:53:13 73.84, 115.96 50.74 3.29 37




NCC Satellite Simultaneous Nadir Overpasses (SNOs) Prediction Service
